F6141 Weather Reports


Display with metric or nautical units.
time (UTC)temp
F
wind
direction
speed
MPH
gust
MPH
rain 1hr
in
rain 24hr
in
rain mn
in
humidity
%
barometer
mb
20240529145023 68 230 1.0 2.0 0.00 0.03 0.00 65 1027.2
20240529144025 66 158 0.0 3.0 0.00 0.03 0.00 70 1027.2
20240529143048 62 0.0 0.0 0.00 0.03 0.00 80 1027.2
20240529142024 58 0.0 0.0 0.00 0.03 0.00 83 1027.2
20240529141040 57 0.0 0.0 0.00 0.03 0.00 91 1027.2
20240529140017 55 0.0 0.0 0.00 0.03 0.00 93 1027.2
20240529135039 55 0.0 0.0 0.00 0.03 0.00 94 1027.2
20240529134122 54 338 0.0 1.0 0.00 0.03 0.00 95 1027.2
20240529133026 54 0.0 1.0 0.00 0.03 0.00 94 1027.2
20240529132026 53 0.0 0.0 0.00 0.03 0.00 96 1026.8
20240529131029 53 0 0.0 2.0 0.00 0.03 0.00 99 1026.8
20240529130032 52 0.0 0.0 0.00 0.03 0.00 99 1026.7
20240529125016 51 0.0 0.0 0.00 0.03 0.00 99 1026.5
20240529124018 50 23 0.0 2.0 0.00 0.03 0.00 99 1026.5
20240529123041 49 0.0 0.0 0.00 0.03 0.00 99 1026.5
20240529122043 48 0.0 0.0 0.00 0.03 0.00 99 1026.4
20240529121026 48 0.0 0.0 0.00 0.03 0.00 99 1026.3
20240529120129 47 0.0 0.0 0.00 0.03 0.00 99 1026.1
20240529115051 46 0.0 0.0 0.00 0.03 0.00 99 1025.9
20240529114015 45 0.0 0.0 0.00 0.04 0.00 99 1025.7
20240529113018 45 0.0 0.0 0.00 0.04 0.00 99 1025.6
20240529112140 45 0.0 0.0 0.00 0.05 0.00 99 1025.4
20240529111017 44 0.0 0.0 0.00 0.05 0.00 99 1025.3
20240529110025 44 0.0 0.0 0.00 0.05 0.00 99 1025.3
20240529105028 44 0.0 0.0 0.00 0.05 0.00 99 1025.2
20240529104030 45 0.0 0.0 0.00 0.05 0.00 99 1025.2
20240529103032 45 0.0 0.0 0.00 0.05 0.00 99 1025.1
20240529102037 45 0.0 0.0 0.00 0.05 0.00 99 1024.9
20240529101019 45 0.0 0.0 0.00 0.05 0.00 99 1024.7
20240529100022 45 0.0 0.0 0.00 0.05 0.00 99 1024.7
20240529095044 45 0.0 0.0 0.00 0.05 0.00 99 1024.6
20240529094027 46 0.0 0.0 0.00 0.05 0.00 99 1024.5
20240529093029 46 0.0 0.0 0.00 0.05 0.00 99 1024.6
20240529092032 46 0.0 0.0 0.00 0.05 0.00 99 1024.6
20240529091036 46 0.0 0.0 0.00 0.05 0.00 99 1024.5
20240529090018 47 0.0 0.0 0.00 0.05 0.00 99 1024.4
20240529085021 47 0.0 0.0 0.00 0.05 0.00 99 1024.3
20240529084023 46 0.0 0.0 0.00 0.05 0.00 98 1024.1
20240529083020 47 0.0 0.0 0.00 0.05 0.00 99 1024.1
20240529082016 47 0.0 0.0 0.00 0.05 0.00 99 1024.0
20240529081031 47 0.0 0.0 0.00 0.05 0.00 98 1023.9
20240529080015 47 0.0 0.0 0.00 0.05 0.00 98 1023.9
20240529075017 47 0.0 0.0 0.00 0.05 0.00 98 1023.8
20240529074020 47 0.0 0.0 0.00 0.05 0.00 98 1023.8
20240529073023 47 0.0 0.0 0.00 0.05 0.00 98 1023.8
20240529072025 47 0.0 0.0 0.00 0.05 0.00 98 1023.6
20240529071028 48 0.0 0.0 0.00 0.05 0.00 98 1023.6
20240529070030 48 0.0 0.0 0.00 0.05 0.00 98 1023.6
20240529065052 48 0.0 0.0 0.00 0.05 0.00 97 1023.4
20240529064017 49 0.0 0.0 0.00 0.05 0.00 97 1023.4
20240529063040 49 0.0 0.0 0.00 0.05 0.00 97 1023.6
20240529062022 49 0.0 0.0 0.00 0.05 0.00 96 1023.6
20240529061024 49 0.0 0.0 0.00 0.05 0.00 96 1023.6
20240529060027 49 0.0 0.0 0.00 0.05 0.00 96 1023.6
20240529055024 49 0.0 0.0 0.00 0.05 0.00 95 1023.6
20240529054020 50 0.0 0.0 0.00 0.05 0.00 94 1023.6
20240529053016 50 0.0 0.0 0.00 0.05 0.00 95 1023.6
20240529052019 50 0.0 0.0 0.00 0.05 0.00 93 1023.4
20240529051041 50 0.0 0.0 0.00 0.05 0.00 94 1023.4
20240529050023 51 0.0 0.0 0.00 0.05 0.00 93 1023.4
20240529045046 51 0.0 0.0 0.00 0.05 0.05 91 1023.4
20240529044028 51 0.0 0.0 0.00 0.05 0.05 92 1023.2
20240529043030 52 0.0 0.0 0.00 0.05 0.05 91 1023.2
20240529042015 51 0.0 0.0 0.00 0.05 0.05 92 1023.2
20240529041037 52 0.0 0.0 0.00 0.05 0.05 91 1023.2
20240529040020 53 0.0 0.0 0.00 0.05 0.05 90 1023.1
20240529035056 53 0.0 0.0 0.00 0.05 0.05 89 1023.1
20240529032817 54 0.0 0.0 0.00 0.32 0.05 90 1022.9
20240529030659 55 0.0 0.0 0.00 0.32 0.05 91 1022.7
20240529025350 56 0.0 0.0 0.00 0.32 0.05 88 1022.5
20240529021523 58 0.0 0.0 0.00 0.32 0.05 86 1022.2
20240529012640 63 0.0 0.0 0.00 0.32 0.05 72 1021.8
20240529011301 66 0.0 0.0 0.00 0.32 0.05 63 1021.8
20240529001241 69 0.0 0.0 0.00 0.32 0.05 68 1021.4
20240528235949 67 0.0 0.0 0.00 0.32 0.05 68 1021.3
20240528234021 73 264 0.0 2.0 0.00 0.32 0.05 58 1021.2
20240528232150 71 245 1.0 2.0 0.01 0.32 0.05 63 1021.2
20240528224258 65 0.0 0.0 0.01 0.32 0.05 74 1021.3
20240528223029 65 0.0 0.0 0.01 0.32 0.05 74 1021.5
20240528222031 68 54 1.0 2.0 0.01 0.31 0.04 68 1021.4
20240528221036 69 62 1.0 2.0 0.01 0.31 0.04 68 1021.3
20240528220018 65 298 2.0 3.0 0.01 0.31 0.04 75 1021.3
20240528215021 66 0.0 0.0 0.01 0.31 0.04 78 1021.3
20240528214016 66 278 1.0 2.0 0.01 0.31 0.04 75 1021.2
20240528213018 70 96 1.0 2.0 0.01 0.31 0.04 67 1021.0
20240528212021 70 300 2.0 4.0 0.00 0.30 0.03 63 1020.8
20240528211017 73 50 4.0 6.0 0.00 0.30 0.03 57 1020.6
20240528210046 74 272 2.0 4.0 0.00 0.30 0.03 58 1020.5
20240528205028 72 328 3.0 5.0 0.00 0.30 0.03 59 1020.5
20240528204030 72 320 2.0 4.0 0.00 0.30 0.03 59 1020.7
20240528203033 72 260 3.0 4.0 0.01 0.30 0.03 63 1020.6
20240528202017 69 13 2.0 4.0 0.01 0.30 0.03 64 1020.7
20240528201019 67 310 3.0 4.0 0.01 0.30 0.03 70 1020.7
20240528200022 64 8 2.0 4.0 0.01 0.30 0.03 74 1020.8
20240528195024 63 324 2.0 2.0 0.01 0.30 0.03 82 1020.8
20240528194027 62 271 2.0 3.0 0.01 0.30 0.03 80 1020.8
20240528193029 62 320 3.0 4.0 0.00 0.29 0.02 78 1020.7
20240528192032 61 308 4.0 5.0 0.00 0.29 0.02 79 1020.6
20240528191016 65 315 4.0 5.0 0.00 0.29 0.02 68 1020.5
20240528190019 70 326 1.0 3.0 0.00 0.29 0.02 66 1020.4
20240528185021 70 318 3.0 4.0 0.00 0.29 0.02 59 1020.2
20240528184104 71 331 3.0 4.0 0.00 0.29 0.02 59 1020.4
20240528183020 72 1 4.0 5.0 0.00 0.29 0.02 59 1020.3
20240528182017 70 311 3.0 5.0 0.00 0.29 0.02 60 1020.3
20240528181031 69 22 2.0 5.0 0.00 0.29 0.02 64 1020.4
20240528180016 70 318 2.0 3.0 0.00 0.29 0.02 60 1020.4
20240528175018 71 355 3.0 5.0 0.00 0.29 0.02 60 1020.5
20240528174041 70 25 3.0 4.0 0.00 0.29 0.02 65 1020.6
20240528173024 69 350 3.0 4.0 0.00 0.29 0.02 64 1020.5
20240528172026 66 19 2.0 4.0 0.00 0.29 0.02 68 1020.5
20240528171028 65 325 2.0 3.0 0.00 0.29 0.02 69 1020.6
20240528170031 65 63 2.0 3.0 0.00 0.29 0.02 69 1020.6
20240528165015 63 46 2.0 4.0 0.00 0.29 0.02 71 1020.6
20240528164017 63 36 3.0 3.0 0.00 0.29 0.02 73 1020.5
20240528163020 64 315 2.0 3.0 0.00 0.29 0.02 74 1020.4
20240528162023 64 341 3.0 4.0 0.00 0.29 0.02 76 1020.3
20240528161025 62 27 2.0 4.0 0.00 0.29 0.02 77 1020.2
20240528160047 62 11 3.0 7.0 0.00 0.29 0.02 77 1020.2
20240528155024 62 333 3.0 4.0 0.00 0.30 0.02 78 1020.2
20240528154021 61 328 3.0 4.0 0.00 0.30 0.02 83 1020.2
20240528153037 61 334 2.0 4.0 0.00 0.30 0.02 84 1020.0
20240528152019 61 334 2.0 3.0 0.00 0.30 0.02 85 1020.0
20240528151022 61 0 1.0 3.0 0.00 0.31 0.02 86 1019.9
20240528150024 60 327 2.0 3.0 0.00 0.33 0.02 89 1019.8